GW3114 Weather Reports


Display with metric or nautical units.
time (UTC)temp
F
wind
direction
speed
MPH
gust
MPH
rain 1hr
in
rain 24hr
in
rain mn
in
humidity
%
barometer
mb
20260905182520 79 239 1.0 2.0 0.00 0.00 0.00 82 1011.8
20260905181515 80 196 0.0 0.0 0.00 0.00 0.00 82 1011.6
20260905180515 79 229 0.0 0.0 0.00 0.00 0.00 82 1011.7
20260905175516 80 227 0.0 0.0 0.00 0.00 0.00 82 1011.9
20260905174512 78 232 0.0 0.0 0.00 0.00 0.00 83 1011.7
20260905173510 78 257 0.0 0.0 0.00 0.00 0.00 84 1012.0
20260905172509 79 235 0.0 0.0 0.00 0.00 0.00 84 1012.2
20260905171507 78 144 0.0 0.0 0.00 0.00 0.00 85 1012.4
20260905170505 78 301 0.0 0.0 0.00 0.00 0.00 85 1012.4
20260905165500 78 194 0.0 0.0 0.00 0.00 0.00 85 1012.6
20260905164455 78 228 0.0 0.0 0.00 0.00 0.00 82 1012.8
20260905163452 77 233 0.0 0.0 0.00 0.00 0.00 86 1012.7
20260905162449 78 238 0.0 0.0 0.00 0.00 0.00 86 1012.9
20260905161449 77 237 0.0 0.0 0.00 0.00 0.00 88 1012.8
20260905160448 77 228 0.0 0.0 0.00 0.00 0.00 89 1013.3
20260905155442 76 231 0.0 0.0 0.00 0.00 0.00 89 1013.2
20260905154442 76 255 0.0 0.0 0.00 0.00 0.00 88 1013.3
20260905153440 77 216 0.0 0.0 0.00 0.00 0.00 88 1013.3
20260905152439 76 233 0.0 0.0 0.00 0.00 0.00 88 1013.2
20260905151435 76 204 0.0 0.0 0.00 0.00 0.00 88 1013.5
20260905150430 76 207 0.0 0.0 0.00 0.00 0.00 90 1013.6
20260905145427 76 217 0.0 0.0 0.00 0.00 0.00 88 1013.4
20260905144422 77 249 0.0 0.0 0.00 0.00 0.00 87 1013.3
20260905143420 78 227 0.0 0.0 0.00 0.00 0.00 86 1013.4
20260905142419 79 214 1.0 2.0 0.00 0.00 0.00 87 1013.2
20260905141416 78 311 3.0 3.0 0.00 0.00 0.00 89 1013.1
20260905140413 77 16 1.0 2.0 0.00 0.00 0.00 89 1012.9
20260905135413 78 322 1.0 2.0 0.00 0.00 0.00 88 1012.8
20260905134414 78 228 0.0 0.0 0.00 0.00 0.00 86 1012.3
20260905133409 80 314 1.0 2.0 0.00 0.00 0.00 87 1012.3
20260905132409 78 335 0.0 1.0 0.00 0.00 0.00 88 1012.3
20260905131406 79 350 2.0 3.0 0.00 0.00 0.00 87 1012.4
20260905130405 76 233 0.0 0.0 0.00 0.00 0.00 97 1012.3
20260905125401 74 215 0.0 0.0 0.00 0.00 0.00 99 1012.4
20260905124358 72 222 0.0 0.0 0.00 0.00 0.00 99 1012.4
20260905123355 72 227 0.0 0.0 0.00 0.00 0.00 99 1012.4
20260905122355 71 231 0.0 0.0 0.00 0.00 0.00 99 1012.2
20260905121352 71 224 0.0 0.0 0.00 0.00 0.00 99 1012.3
20260905120351 72 241 0.0 0.0 0.00 0.00 0.00 99 1012.1
20260905115352 70 212 0.0 0.0 0.00 0.00 0.00 99 1012.3
20260905114351 69 213 0.0 0.0 0.00 0.00 0.00 99 1012.2
20260905113347 69 220 0.0 0.0 0.00 0.00 0.00 99 1012.1
20260905112343 68 222 0.0 0.0 0.00 0.00 0.00 99 1012.1
20260905111338 68 222 0.0 0.0 0.00 0.00 0.00 99 1012.2
20260905110337 68 222 0.0 0.0 0.00 0.00 0.00 99 1012.1
20260905105332 67 229 0.0 0.0 0.00 0.00 0.00 99 1011.9
20260905104329 67 225 0.0 0.0 0.00 0.00 0.00 99 1011.6
20260905103330 67 221 0.0 0.0 0.00 0.00 0.00 99 1011.5
20260905102328 67 225 0.0 0.0 0.00 0.00 0.00 99 1011.2
20260905101326 66 222 0.0 0.0 0.00 0.00 0.00 99 1011.3
20260905100323 66 221 0.0 0.0 0.00 0.00 0.00 99 1011.3
20260905095322 66 219 0.0 0.0 0.00 0.00 0.00 99 1011.1
20260905094319 66 221 0.0 0.0 0.00 0.00 0.00 99 1011.3
20260905093314 66 220 0.0 0.0 0.00 0.00 0.00 99 1011.1
20260905092309 66 221 0.0 0.0 0.00 0.00 0.00 99 1011.3
20260905091304 66 217 0.0 0.0 0.00 0.00 0.00 99 1011.0
20260905090304 67 204 0.0 0.0 0.00 0.00 0.00 99 1011.3
20260905085306 67 222 0.0 0.0 0.00 0.00 0.00 99 1011.2
20260905084259 68 222 0.0 0.0 0.00 0.00 0.00 99 1011.2
20260905083256 67 226 0.0 0.0 0.00 0.00 0.00 99 1011.3
20260905082253 67 225 0.0 0.0 0.00 0.00 0.00 99 1011.3
20260905081249 67 223 0.0 0.0 0.00 0.00 0.00 99 1011.3
20260905080248 67 215 0.0 0.0 0.00 0.00 0.00 99 1011.4
20260905075246 67 222 0.0 0.0 0.00 0.00 0.00 99 1011.5
20260905074241 67 212 0.0 0.0 0.00 0.00 0.00 99 1011.5
20260905073238 67 220 0.0 0.0 0.00 0.00 0.00 99 1011.4
20260905072239 68 223 0.0 0.0 0.00 0.00 0.00 99 1011.4
20260905071237 68 217 0.0 0.0 0.00 0.00 0.00 99 1011.6
20260905070234 68 228 0.0 0.0 0.00 0.00 0.00 99 1011.6
20260905065232 68 220 0.0 0.0 0.00 0.00 0.00 99 1011.6
20260905064229 68 224 0.0 0.0 0.00 0.00 0.00 99 1012.0
20260905063229 68 230 0.0 0.0 0.00 0.00 0.00 99 1012.0
20260905062225 68 211 0.0 0.0 0.00 0.00 0.00 99 1012.2
20260905061220 68 208 0.0 0.0 0.00 0.00 0.00 99 1012.3
20260905060217 68 208 0.0 0.0 0.00 0.00 0.00 99 1012.4
20260905055217 69 221 0.0 0.0 0.00 0.00 0.00 99 1012.5
20260905054214 69 230 0.0 0.0 0.00 0.00 0.00 99 1012.7
20260905053214 69 221 0.0 0.0 0.00 0.00 0.00 99 1012.9
20260905052209 69 259 0.0 0.0 0.00 0.00 0.00 99 1012.7
20260905051206 69 247 0.0 0.0 0.00 0.00 0.00 99 1012.7
20260905050204 69 227 0.0 0.0 0.00 0.00 0.00 99 1013.0
20260905045159 69 211 0.0 0.0 0.00 0.00 0.00 99 1013.0
20260905044155 69 199 0.0 0.0 0.00 0.00 0.00 99 1012.9
20260905043149 70 233 0.0 0.0 0.00 0.00 0.00 99 1013.2
20260905042148 70 233 0.0 0.0 0.00 0.00 0.00 99 1013.0
20260905041145 70 213 0.0 0.0 0.00 0.00 0.00 99 1013.1
20260905040145 70 223 0.0 0.0 0.00 0.00 0.00 99 1013.2
20260905035142 70 229 0.0 0.0 0.00 0.32 0.32 99 1013.3
20260905034137 71 228 0.0 0.0 0.00 0.32 0.32 99 1013.7
20260905033132 70 224 0.0 0.0 0.00 0.32 0.32 99 1013.6
20260905032131 70 211 0.0 0.0 0.00 0.32 0.32 99 1013.5
20260905031129 71 220 0.0 0.0 0.00 0.32 0.32 99 1013.5
20260905030125 71 222 0.0 0.0 0.00 0.32 0.32 99 1013.4
20260905025121 71 216 0.0 0.0 0.00 0.32 0.32 99 1013.5
20260905024118 70 223 0.0 0.0 0.00 0.32 0.32 99 1013.3
20260905023113 70 214 0.0 0.0 0.00 0.32 0.32 99 1013.3
20260905022114 71 221 0.0 0.0 0.00 0.32 0.32 99 1013.5
20260905021109 71 214 0.0 0.0 0.00 0.32 0.32 99 1013.4
20260905020104 71 223 0.0 0.0 0.00 0.32 0.32 99 1012.9
20260905015103 71 225 0.0 0.0 0.00 0.32 0.32 99 1013.1
20260905014059 71 204 0.0 0.0 0.00 0.32 0.32 99 1012.8
20260905013057 71 238 0.0 0.0 0.00 0.32 0.32 99 1012.8
20260905012053 71 224 0.0 0.0 0.00 0.32 0.32 99 1012.8
20260905011050 72 219 0.0 0.0 0.00 0.32 0.32 99 1012.4
20260905010046 72 223 0.0 0.0 0.00 0.32 0.32 99 1012.6
20260905005043 72 215 0.0 0.0 0.00 0.32 0.32 99 1012.5
20260905004038 72 212 0.0 0.0 0.00 0.32 0.32 99 1012.3
20260905003036 72 231 0.0 0.0 0.00 0.32 0.32 99 1012.5
20260905002031 73 211 0.0 0.0 0.00 0.32 0.32 99 1012.2
20260905001032 73 203 0.0 0.0 0.00 0.32 0.32 99 1012.1
20260905000030 73 202 0.0 0.0 0.00 0.32 0.32 99 1012.2
20260904235024 73 218 0.0 0.0 0.00 0.32 0.32 99 1012.3
20260904234020 73 223 0.0 0.0 0.00 0.32 0.32 99 1012.3
20260904233017 73 191 0.0 0.0 0.00 0.32 0.32 99 1012.6
20260904232016 73 226 0.0 0.0 0.00 0.32 0.32 99 1012.5
20260904231012 74 235 0.0 0.0 0.00 0.32 0.32 99 1012.7
20260904230007 74 213 0.0 0.0 0.00 0.32 0.32 99 1012.4
20260904225003 74 217 0.0 0.0 0.00 0.32 0.32 99 1012.3
20260904223959 74 233 0.0 0.0 0.00 0.32 0.32 99 1012.3
20260904222954 74 224 0.0 0.0 0.00 0.32 0.32 99 1012.3
20260904221950 73 211 0.0 0.0 0.00 0.32 0.32 99 1012.4
20260904220945 74 212 0.0 0.0 0.00 0.32 0.32 99 1012.3
20260904215940 74 193 0.0 0.0 0.00 0.32 0.32 99 1012.8
20260904214937 74 221 0.0 0.0 0.00 0.32 0.32 99 1013.2
20260904213932 74 203 0.0 0.0 0.00 0.32 0.32 99 1013.0
20260904212928 74 218 0.0 0.0 0.00 0.32 0.32 99 1013.0
20260904211923 73 227 0.0 0.0 0.00 0.32 0.32 99 1013.0
20260904210919 72 219 0.0 0.0 0.00 0.32 0.32 99 1012.8
20260904205920 71 194 0.0 0.0 0.00 0.32 0.32 99 1013.4
20260904204918 71 189 0.0 0.0 0.00 0.32 0.32 99 1013.6
20260904203915 71 219 0.0 0.0 0.38 0.32 0.32 99 1013.7
20260904202912 72 236 0.0 1.0 0.97 0.27 0.27 97 1014.5
20260904201910 74 284 2.0 4.0 0.31 0.10 0.10 93 1014.7
20260904200906 81 242 2.0 3.0 0.00 0.05 0.05 80 1013.6
20260904195906 87 222 0.0 0.0 0.00 0.05 0.05 78 1013.4
20260904194904 88 218 0.0 0.0 0.00 0.05 0.05 77 1012.9
20260904193859 89 216 0.0 0.0 0.00 0.05 0.05 72 1012.6
20260904192855 89 242 0.0 0.0 0.00 0.05 0.05 70 1012.7
20260904191853 89 209 1.0 1.0 0.00 0.05 0.05 71 1012.8
20260904190851 92 232 0.0 1.0 0.00 0.05 0.05 66 1013.1
20260904185849 91 228 0.0 0.0 0.00 0.05 0.05 65 1012.6
20260904184849 91 287 0.0 1.0 0.00 0.05 0.05 67 1012.9
20260904183845 90 207 1.0 1.0 0.00 0.05 0.05 69 1013.4
20260904182842 91 242 0.0 0.0 0.00 0.05 0.05 69 1013.4